When you browse on this site, cookies collect data to enhance your experience and personalize the content and advertising you see.
Visit our Privacy Policy to learn more. By continuing to use the site, you agree to this use of cookies and data.
  • în România
  • Lista ţărilor
  • Pe 7 zile
  • Temperatura apei
  • Hartă satelitară
  • Meteo pe hartă
  • Widget-uri
  • user-avatar
    Intrare

    Meteo pe oră la Rokochevo

    Astăzi, 21 Iulie, Duminică

    Timp Temperatura Precipitaţii Vânt Presiune Umiditate
    00:00 +13°C° 0 mm 1 m/s 744 mmHg 98%
    01:00 +13°C° 0 mm 1 m/s 744 mmHg 98%
    02:00 +13°C° 0 mm 1 m/s 745 mmHg 98%
    03:00 +13°C° 0 mm 1 m/s 745 mmHg 98%
    04:00 +13°C° 0 mm 1 m/s 745 mmHg 98%
    05:00 +13°C° 0 mm 1 m/s 745 mmHg 98%
    06:00 +15°C° 0 mm 1 m/s 745 mmHg 94%
    07:00 +16°C° 0 mm 1 m/s 745 mmHg 89%
    08:00 +19°C° 0 mm 1 m/s 745 mmHg 85%
    09:00 +21°C° 0 mm 1 m/s 746 mmHg 76%
    10:00 +22°C° 0 mm 1 m/s 746 mmHg 67%
    11:00 +24°C° 0 mm 1 m/s 746 mmHg 58%
    12:00 +24°C° 0.2 mm 1 m/s 746 mmHg 58%
    13:00 +25°C° 0.2 mm 1 m/s 745 mmHg 58%
    14:00 +25°C° 0.2 mm 1 m/s 745 mmHg 58%
    15:00 +24°C° 0.7 mm 1 m/s 745 mmHg 67%
    16:00 +23°C° 0.7 mm 1 m/s 745 mmHg 76%
    17:00 +22°C° 0.7 mm 1 m/s 745 mmHg 85%
    18:00 +21°C° 0.3 mm 1 m/s 745 mmHg 87%
    19:00 +19°C° 0.3 mm 1 m/s 745 mmHg 89%
    20:00 +16°C° 0.3 mm 0 m/s 744 mmHg 91%
    21:00 +15°C° 0 mm 0 m/s 745 mmHg 91%
    22:00 +14°C° 0 mm 0 m/s 745 mmHg 91%
    23:00 +14°C° 0 mm 0 m/s 745 mmHg 92%

    Mâine, 22 Iulie, Luni

    Timp Temperatura Precipitaţii Vânt Presiune Umiditate
    00:00 +13°C° 0 mm 0 m/s 745 mmHg 92%
    01:00 +13°C° 0 mm 0 m/s 745 mmHg 93%
    02:00 +12°C° 0 mm 0 m/s 745 mmHg 93%
    03:00 +13°C° 0 mm 0 m/s 744 mmHg 93%
    04:00 +13°C° 0 mm 0 m/s 744 mmHg 93%
    05:00 +13°C° 0 mm 0 m/s 744 mmHg 93%
    06:00 +15°C° 0 mm 0 m/s 744 mmHg 88%
    07:00 +17°C° 0 mm 0 m/s 744 mmHg 83%
    08:00 +21°C° 0 mm 1 m/s 744 mmHg 78%
    09:00 +22°C° 0 mm 1 m/s 744 mmHg 70%
    10:00 +24°C° 0 mm 1 m/s 744 mmHg 61%
    11:00 +25°C° 0 mm 1 m/s 744 mmHg 53%
    12:00 +26°C° 0 mm 1 m/s 744 mmHg 52%
    13:00 +26°C° 0 mm 1 m/s 743 mmHg 51%
    14:00 +26°C° 0 mm 1 m/s 743 mmHg 50%
    15:00 +25°C° 0 mm 1 m/s 743 mmHg 55%
    16:00 +25°C° 0 mm 1 m/s 743 mmHg 60%
    17:00 +24°C° 0 mm 1 m/s 743 mmHg 66%
    18:00 +23°C° 0.1 mm 1 m/s 743 mmHg 71%
    19:00 +21°C° 0.1 mm 1 m/s 743 mmHg 77%
    20:00 +19°C° 0.1 mm 1 m/s 742 mmHg 83%
    21:00 +19°C° 0 mm 1 m/s 743 mmHg 85%
    22:00 +18°C° 0 mm 1 m/s 743 mmHg 88%
    23:00 +15°C° 0 mm 0 m/s 743 mmHg 90%

    Poimâine, 23 Iulie, Marţi

    Timp Temperatura Precipitaţii Vânt Presiune Umiditate
    00:00 +16°C° 0 mm 1 m/s 743 mmHg 91%
    01:00 +15°C° 0 mm 1 m/s 742 mmHg 92%
    02:00 +15°C° 0 mm 1 m/s 742 mmHg 93%
    03:00 +15°C° 0 mm 1 m/s 742 mmHg 93%
    04:00 +15°C° 0 mm 1 m/s 743 mmHg 93%
    05:00 +15°C° 0 mm 1 m/s 743 mmHg 92%
    06:00 +18°C° 0.1 mm 1 m/s 743 mmHg 87%
    07:00 +19°C° 0.1 mm 1 m/s 743 mmHg 83%
    08:00 +20°C° 0.1 mm 2 m/s 743 mmHg 78%
    09:00 +21°C° 0.3 mm 2 m/s 743 mmHg 73%
    10:00 +23°C° 0.3 mm 2 m/s 743 mmHg 67%
    11:00 +24°C° 0.3 mm 2 m/s 743 mmHg 62%
    12:00 +24°C° 0.1 mm 2 m/s 743 mmHg 60%
    13:00 +25°C° 0.1 mm 2 m/s 743 mmHg 57%
    14:00 +25°C° 0.1 mm 2 m/s 743 mmHg 55%
    15:00 +25°C° 0.4 mm 2 m/s 743 mmHg 62%
    16:00 +24°C° 0.4 mm 2 m/s 743 mmHg 69%
    17:00 +23°C° 0.4 mm 1 m/s 743 mmHg 76%
    18:00 +22°C° 0.2 mm 1 m/s 743 mmHg 80%
    19:00 +19°C° 0.2 mm 2 m/s 743 mmHg 85%
    20:00 +17°C° 0.2 mm 2 m/s 743 mmHg 89%
    21:00 +18°C° 0 mm 1 m/s 743 mmHg 90%
    22:00 +16°C° 0 mm 1 m/s 744 mmHg 90%
    23:00 +15°C° 0 mm 1 m/s 744 mmHg 91%

    24 Iulie, Miercuri

    Timp Temperatura Precipitaţii Vânt Presiune Umiditate
    00:00 +15°C° 0 mm 1 m/s 744 mmHg 92%
    01:00 +14°C° 0 mm 1 m/s 744 mmHg 92%
    02:00 +14°C° 0 mm 1 m/s 744 mmHg 93%
    03:00 +14°C° 0 mm 1 m/s 744 mmHg 92%
    04:00 +14°C° 0 mm 1 m/s 744 mmHg 92%
    05:00 +14°C° 0 mm 1 m/s 744 mmHg 91%
    06:00 +16°C° 0 mm 1 m/s 744 mmHg 83%
    07:00 +19°C° 0 mm 1 m/s 744 mmHg 75%
    08:00 +21°C° 0 mm 1 m/s 745 mmHg 68%
    09:00 +21°C° 0 mm 2 m/s 745 mmHg 60%
    10:00 +24°C° 0 mm 2 m/s 745 mmHg 52%
    11:00 +25°C° 0 mm 2 m/s 745 mmHg 44%
    12:00 +26°C° 0 mm 2 m/s 745 mmHg 43%
    13:00 +26°C° 0 mm 2 m/s 745 mmHg 42%
    14:00 +26°C° 0 mm 2 m/s 745 mmHg 42%
    15:00 +26°C° 0 mm 2 m/s 745 mmHg 46%
    16:00 +25°C° 0 mm 2 m/s 745 mmHg 50%
    17:00 +25°C° 0 mm 2 m/s 745 mmHg 53%
    18:00 +23°C° 0 mm 1 m/s 745 mmHg 62%
    19:00 +21°C° 0 mm 1 m/s 745 mmHg 70%
    20:00 +19°C° 0 mm 1 m/s 745 mmHg 78%
    21:00 +16°C° 0 mm 0 m/s 745 mmHg 79%
    22:00 +15°C° 0 mm 0 m/s 746 mmHg 81%
    23:00 +14°C° 0 mm 0 m/s 746 mmHg 82%

    25 Iulie, Joi

    Timp Temperatura Precipitaţii Vânt Presiune Umiditate
    00:00 +14°C° 0 mm 0 m/s 746 mmHg 85%
    01:00 +13°C° 0 mm 0 m/s 746 mmHg 87%
    02:00 +13°C° 0 mm 0 m/s 746 mmHg 89%
    03:00 +13°C° 0 mm 0 m/s 746 mmHg 88%
    04:00 +14°C° 0 mm 0 m/s 746 mmHg 88%
    05:00 +14°C° 0 mm 0 m/s 746 mmHg 87%
    06:00 +16°C° 0 mm 0 m/s 747 mmHg 80%
    07:00 +18°C° 0 mm 0 m/s 747 mmHg 73%
    08:00 +22°C° 0 mm 1 m/s 747 mmHg 66%
    09:00 +23°C° 0 mm 1 m/s 747 mmHg 60%
    10:00 +25°C° 0 mm 1 m/s 747 mmHg 55%
    11:00 +26°C° 0 mm 1 m/s 747 mmHg 50%
    12:00 +27°C° 0 mm 1 m/s 747 mmHg 49%
    13:00 +27°C° 0 mm 1 m/s 747 mmHg 49%
    14:00 +27°C° 0 mm 1 m/s 747 mmHg 48%
    15:00 +27°C° 0 mm 2 m/s 747 mmHg 51%
    16:00 +26°C° 0 mm 2 m/s 746 mmHg 53%
    17:00 +26°C° 0 mm 2 m/s 746 mmHg 56%
    18:00 +24°C° 0 mm 2 m/s 747 mmHg 66%
    19:00 +21°C° 0 mm 2 m/s 747 mmHg 76%
    20:00 +19°C° 0 mm 2 m/s 747 mmHg 86%
    21:00 +19°C° 0 mm 2 m/s 747 mmHg 90%
    22:00 +18°C° 0 mm 2 m/s 747 mmHg 93%
    23:00 +18°C° 0 mm 1 m/s 747 mmHg 97%

    26 Iulie, Vineri

    Timp Temperatura Precipitaţii Vânt Presiune Umiditate
    00:00 +16°C° 0 mm 1 m/s 747 mmHg 97%
    01:00 +16°C° 0 mm 1 m/s 747 mmHg 97%
    02:00 +15°C° 0 mm 1 m/s 747 mmHg 96%
    03:00 +15°C° 0 mm 2 m/s 747 mmHg 94%
    04:00 +14°C° 0 mm 2 m/s 747 mmHg 92%
    05:00 +13°C° 0 mm 2 m/s 747 mmHg 90%
    06:00 +15°C° 0 mm 2 m/s 747 mmHg 82%
    07:00 +17°C° 0 mm 2 m/s 748 mmHg 73%
    08:00 +18°C° 0 mm 2 m/s 748 mmHg 65%
    09:00 +20°C° 0 mm 3 m/s 748 mmHg 60%
    10:00 +21°C° 0 mm 3 m/s 748 mmHg 55%
    11:00 +24°C° 0 mm 3 m/s 748 mmHg 50%
    12:00 +24°C° 0 mm 3 m/s 747 mmHg 49%
    13:00 +25°C° 0 mm 3 m/s 747 mmHg 48%
    14:00 +25°C° 0 mm 3 m/s 747 mmHg 48%
    15:00 +24°C° 0 mm 3 m/s 747 mmHg 50%
    16:00 +24°C° 0 mm 3 m/s 746 mmHg 53%
    17:00 +22°C° 0 mm 3 m/s 746 mmHg 56%
    18:00 +20°C° 0 mm 3 m/s 746 mmHg 63%
    19:00 +19°C° 0 mm 2 m/s 746 mmHg 70%
    20:00 +17°C° 0 mm 2 m/s 746 mmHg 78%
    21:00 +16°C° 0 mm 1 m/s 746 mmHg 79%
    22:00 +15°C° 0 mm 1 m/s 746 mmHg 81%
    23:00 +14°C° 0 mm 1 m/s 746 mmHg 82%
    Arată mai mult